OBJECT A, 69320

Orbit data source: Space-Track

You're viewing an Uncataloged Satellite

Recently launched and/or uncataloged satellites may have evolving metadata. Metadata may include but not limited to: Owner, Maufacturer, Bus, Motor, and Mission.

OBJECT A, 69320 is a satellite owned by Zhongguo Xingwang (CN) in LEO that was launched on Sat, 30 May 2026 UTC via a CHANG ZHENG 2D launch vehicle from the Xichang Space Center, China (XSC). Unknown objects in Earth's orbit typically refer to objects detected orbiting the Earth but have not yet been identified or cataloged. These objects could be anything from previously untracked satellites, spent rocket stages, debris from satellite collisions, or even natural meteoroids temporarily captured by Earth's gravity.

Loading next visibility...
Identifier
69320, 2026-120A
Orbit
LEO
Country
Flag of CNCN / PRC
Related business
Manufacturer
ZHSW
Mission
Operational spacecraft
Bus & Motor
Unknown
Mass
~300 kg wet, ~300 kg dry
Launch date (UTC)
2026-05-30 (2 weeks ago)
Launch vehicle
CHANG ZHENG 2D
Launch site
Xichang Space Center, China (XSC)
Object type
Unknown
Shape & HBR
Unknown
Radar Cross Section
RCS unknown

Expand to show TLE details & history
Last TLE update: 1 week ago

TLE from 1 week ago
0 OBJECT A
1 69320U 26120A   26152.22676039  .00010528  00000-0  28022-3 0  9995
2 69320  54.9978  99.6159 0009160 274.0654  85.9327 15.38786350   232
Epoch: 2026-06-01T05:26Z
TLE epoch observation values (Epoch: 2026-06-01T05:26:32.097Z)
Latitude
-0.00004°
Longitude
128.26502°
Altitude
450.359 km
Speed
7.643 km/s
True Right ascension
06h 38m 27s
True Declination
0° 00' 00"
Sunlit
Object was in daylight at epoch
Visualization orbit readout
Latitude
Unknown
Longitude
Unknown
Altitude
Unknown
Speed
Unknown
Apparent Right ascension
Unknown
Apparent Declination
Unknown
Sunlit
N/A
Visualization observer readout
Local Sidereal Time
13:30:08
Azimuth
Unknown
Elevation
Unknown
Doppler factor
Unknown
Orbital elements
Apogee altitude
455.914 km
Perigee altitude
443.405 km
Semi-major axis
6,827.797 km
Eccentricity
0.00092
Inclination
54.9978°
RAAN
99.6159°
Arg. of periapsis
274.0654°
True anomaly
86.03741°
Mean anomaly
85.9327°
Eccentric anomaly
85.98505°
Mean motion
3.847 °/min
Orbital period
93.58 mins
BSTAR
0.00028022
Loading maneuver chart data...
Computing Atmospheric mass density...
Loading historical data...
Loading historical data...
Loading historical data...
Loading historical data...
Loading historical data...
Loading historical data...
Loading historical data...
Other satellites on launch #120 in the year 2026 (2026-05-30 UTC)

Documentation

Showing up to 5 results
|